User: anonymous
Location: Caltech
(34.1382°N, 118.1253°W)
Time: 20:50:18
(UTC-07:00)
Language:

Cosmos 2219 - Orbit

View from above orbital plane
View from above orbital plane
View from above satellite
View from above satellite

Ground track
Ground track

The orbit data is extracted from the following two-line orbital elements,

1 22219U 92076A   14106.45224536  .00000029  00000-0  40341-4 0  4827
2 22219 071.0609 095.8692 0019182 349.9022 170.0772 14.13487766104613
Epoch (UTC): 16 April 2014 10:51:14
Eccentricity: 0.0019182
inclination: 71.0609°
perigee height: 833 km
apogee height: 861 km
right ascension of ascending node: 95.8692°
argument of perigee: 349.9022°
revolutions per day: 14.13487766
mean anomaly at epoch: 170.0772°
orbit number at epoch: 10461

The dashed part of the orbit path shows where the satellite is in the earth's shadow,  

DLR